Location: Unspecified
(0.0000°N, 0.0000°E)
Time: 12:43:56
(UTC+00:00)

Tiangong 2 - Pass Details

Date: 16 December 2017
Orbit: 386 x 390 km, 42.8° (Epoch: 16 December)

Event Time Altitude Azimuth Distance (km) Brightness Sun altitude
Exits shadow 05:09:33 - 343° (NNW) 1,643 3.9 -10.6°
Reaches altitude 10° 05:10:14 10° 349° (N) 1,402 3.6 -10.4°
Maximum altitude 05:12:52 24° 45° (NE) 854 3.1 -9.8°
Drops below altitude 10° 05:15:30 10° 101° (E) 1,409 5.4 -9.2°
Sets 05:17:49 0° 116° (ESE) 2,265 7.5 -8.7°
